Weather in Kuujjuaq

Canada     58°06′33″N   68°24′07″W
temp.,
°C
wind,
m/s
gust,
m/s
humid.,
%
clouds,
%
prec.,
mm/h
press.,
hPa
HPBL,
m
26 february, fri
fri2601:00−31wsw6108284 0.0 1011185
04:00−32wsw578662 0.0 101394
07:00−33sw459036 0.0 101356
10:00−26sw58870 0.0 1012303
13:00−21ssw8118516 0.0 1009505
16:00−17ssw71289100 0.0 1007563
19:00−16ssw51189100 0.1 1005337
22:00−13s61291100 0.1 1002364
27 february, sat
sat2701:00−10ssw81388100 0.1 998375
04:00−8sse4895100 0.5 995281
07:00−9nw3394100 1.3 99340
10:00−12nnw6895100 0.6 994310
13:00−15nnw71094100 1.6 997436
16:00−22nw91289100 0.5 1004417
19:00−32w587871 0.5 1013126
22:00−34wsw510810 0.0 1018149
28 february, sun
sun2801:00−37wsw58860 0.0 1021124
04:00−37sw59850 0.0 1025141
07:00−38sw59860 0.0 1026138
10:00−32sw698425 0.0 1025349
13:00−27sw688361 0.0 1024497
16:00−26ssw3586100 0.0 1022248
19:00−27se3389100 0.0 101943
22:00−26e3388100 0.0 101527
1 march, mon
mon101:00−24ene4692100 0.0 1010162
04:00−22ene5889100 0.0 1005260
07:00−22ne81192100 0.1 1001358
10:00−20ne81198100 0.8 997368
13:00−17nne81196100 1.3 993440
16:00−19n91297100 0.8 992443
19:00−19n81496100 1.3 993470
22:00−23nnw101691100 0.2 994482
2 march, tue
tue201:00−27nw81490100 0.3 996456
04:00−28wnw81291100 0.1 1000414
07:00−33wnw81382100 0.1 1003366
10:00−32wnw8128582 0.0 1005434
13:00−30wnw7118443 0.0 1007504
16:00−31wnw610848 0.0 1008425
19:00−35w568711 0.0 100981
22:00−36w45884 0.0 101049